Flag for Russia

Past Weather in Bratsk, Russia — Yesterday and Last 2 Weeks

Currently: -13 °F. Ice fog. (Weather station: Bratsk / Irkutsk, Russia). See more current weather

Past Weather in Bratsk — Graph

°F

Bratsk Temperature Yesterday

Maximum temperature yesterday: -13 °F (at 1:30 pm)
Minimum temperature yesterday: -24 °F (at 9:30 am)
Average temperature yesterday: -17 °F

High & Low Weather Summary for the Past Weeks

 TemperatureHumidityPressure
High16 °F (Jan 19, 3:30 am)93% (Jan 19, 3:30 am)30.60 "Hg (Jan 19, 3:30 am)
Low-27 °F (Jan 12, 10:00 am)54% (Jan 20, 3:00 pm)29.39 "Hg (Jan 19, 3:30 am)
Average-7 °F78%30.07 "Hg
* Reported Jan 7 4:00 am — Jan 22 4:30 am, Bratsk. Weather by CustomWeather, © 2021

Note: Actual official high and low records may vary slightly from our data, if they occured in-between our weather recording intervals... More about our weather records

Bratsk Weather History for the Previous 24 Hours

Scroll right to see more
 ConditionsComfort  
Time TempWeatherWind HumidityBarometerVisibility
4:30 am
Fri, Jan 22
-13 °FIce fog.1 mph76%29.83 "Hg1 mi
4:00 am-15 °FPassing clouds.1 mph83%29.86 "Hg4 mi
3:30 am-13 °FSnow. Ice fog.1 mph76%29.86 "Hg2 mi
3:00 am-13 °FExtremely cold.1 mph76%29.86 "Hg1 mi
2:30 am-13 °FExtremely cold.1 mph76%29.89 "Hg0 mi
2:00 am-13 °FPassing clouds.1 mph83%29.89 "Hg5 mi
1:30 am-15 °FPassing clouds.3 mph76%29.89 "HgN/A
1:00 am-15 °FPassing clouds.3 mph83%29.92 "HgN/A
12:30 am-15 °FPassing clouds.3 mph76%29.92 "HgN/A
12:00 am-13 °FPassing clouds.3 mph76%29.92 "HgN/A
11:30 pm
Thu, Jan 21
-15 °FExtremely cold.6 mph83%29.92 "Hg5 mi
11:00 pm-15 °FExtremely cold.6 mph83%29.95 "Hg4 mi
10:30 pm-17 °FExtremely cold.6 mph83%29.95 "Hg6 mi
10:00 pm-15 °FClear.3 mph83%29.95 "Hg6 mi
9:30 pm-15 °FClear.3 mph83%29.98 "HgN/A
9:00 pm-15 °FClear.3 mph83%29.98 "HgN/A
8:30 pm-15 °FClear.3 mph76%29.98 "HgN/A
8:00 pm-17 °FClear.3 mph83%30.01 "HgN/A
7:30 pm-15 °FClear.3 mph76%30.01 "HgN/A
7:00 pm-17 °FIce fog.3 mph76%30.01 "Hg1 mi
6:30 pm-15 °FClear.1 mph76%30.04 "HgN/A
6:00 pm-15 °FClear.3 mph76%30.04 "HgN/A
5:30 pm-13 °FClear.3 mph76%30.04 "Hg5 mi
5:00 pm-13 °FClear.1 mph69%30.07 "HgN/A
4:30 pm-15 °FClear.1 mph76%30.07 "HgN/A
4:00 pm-13 °FClear.3 mph69%30.07 "HgN/A
3:30 pm-13 °FClear.3 mph69%30.09 "HgN/A
3:00 pm-13 °FClear.3 mph63%30.09 "HgN/A
2:30 pm-13 °FClear.3 mph69%30.09 "HgN/A
2:00 pm-13 °FClear.3 mph69%30.09 "HgN/A
1:30 pm-13 °FIce fog.1 mph69%30.12 "Hg3 mi
1:00 pm-15 °FIce fog.3 mph76%30.12 "Hg3 mi
12:30 pm-17 °FIce fog.1 mph76%30.12 "Hg3 mi
12:00 pm-17 °FIce fog.1 mph76%30.15 "Hg2 mi
11:30 am-18 °FIce fog.1 mph75%30.15 "Hg2 mi
11:00 am-20 °FIce fog.1 mph83%30.15 "Hg2 mi
10:30 am-22 °FIce fog.1 mph75%30.15 "Hg3 mi
10:00 am-22 °FClear.1 mph75%30.15 "Hg5 mi
9:30 am-24 °FClear.1 mph75%30.15 "Hg5 mi
9:00 am-20 °FClear.1 mph75%30.15 "Hg6 mi
8:30 am-22 °FIce fog.1 mph83%30.18 "Hg2 mi
8:00 am-20 °FPassing clouds.No wind83%30.18 "Hg5 mi
7:30 am-20 °FIce fog.1 mph75%30.18 "Hg3 mi
7:00 am-20 °FIce fog.3 mph75%30.18 "Hg2 mi
6:30 am-20 °FPassing clouds.1 mph75%30.18 "Hg5 mi
6:00 am-20 °FPassing clouds.No wind83%30.18 "Hg4 mi
5:30 am-22 °FExtremely cold.No wind75%30.18 "Hg4 mi
5:00 am-20 °FExtremely cold.No wind75%30.18 "HgN/A
Weather by CustomWeather, © 2021

See weather overview